Miscellaneous Local Product
Issued by NWS Hastings, NE

Home | Current Version | Previous Version | Text Only | Print | Product List | Glossary Off
Versions: 1 2 3 4 5 6 7 8 9 10 11 12 13 14 15 16 17 18 19 20 21 22 23 24 25 26 27 28 29 30 31 32 33 34 35 36 37 38 39 40 41 42 43 44 45 46 47 48 49 50

433
AXUS43 KGID 222302
MISGRI

GID CWA HOURLY WEATHER ROUNDUP
NATIONAL WEATHER SERVICE HASTINGS NE
500 PM CST THU FEB 22 2018

NOTE: "FAIR" INDICATES FEW OR NO CLOUDS BELOW 12,000 FEET WITH NO
SIGNIFICANT WEATHER AND/OR OBSTRUCTIONS TO VISIBILITY.

...SOUTH CENTRAL NEBRASKA...

CITY           SKY/WX    TMP DP  RH WIND       PRES   REMARKS
GRAND ISLAND   LGT SNOW  26  23  88 S3        30.15R VSB 1
KEARNEY        LGT SNOW  25  23  92 SE5       30.13S FOG     WCI  19
HASTINGS       FRZ RAIN  25  23  92 SW3       30.14F FOG
ORD            LGT SNOW  23  20  88 SW5       30.13F FOG     WCI  17
YORK           LGT SNOW  27  27 100 S6        30.16R WCI  20
AURORA         LGT SNOW  27  24  89 S3        30.15S
LEXINGTON      CLOUDY    27  22  80 SW5       30.11S WCI  21
HOLDREGE       CLOUDY    25  24  99 S5        30.11S FOG     WCI  19
HEBRON         MIX PCPN  30  28  94 CALM      30.16S

...NEBRASKA PANHANDLE...

CITY           SKY/WX    TMP DP  RH WIND       PRES   REMARKS
CHADRON        PTSUNNY   22  15  75 CALM      30.03S
ALLIANCE       PTSUNNY   21  18  88 SW5       29.99S WCI  15
SCOTTSBLUFF    PTSUNNY   25  18  74 W3        30.00S
SIDNEY         CLOUDY    25  15  66 S5        29.98S WCI  19

...WESTERN AND NORTH CENTRAL NEBRASKA...

CITY           SKY/WX    TMP DP  RH WIND       PRES   REMARKS
VALENTINE      CLOUDY    24  18  77 S9        30.09S WCI  14
AINSWORTH      CLOUDY    22  19  91 S7        30.10F WCI  13
ONEILL         SNOW      22  21  97 CALM      30.15F VSB 1/2
BROKEN BOW     CLOUDY    23  19  85 SE5       30.09F WCI  17
IMPERIAL       CLOUDY    24  18  77 SE9       30.05R WCI  14
NORTH PLATTE   CLOUDY    23  17  78 SE3       30.08F
MCCOOK         CLOUDY    23  22  96 S5        30.10S FOG     WCI  17

...EASTERN NEBRASKA...

CITY           SKY/WX    TMP DP  RH WIND       PRES   REMARKS
NORFOLK        CLOUDY    25  23  92 S6        30.14F WCI  18
SO SIOUX CITY  CLOUDY    27  25  92 SE9       30.20F WCI  18
TEKAMAH        CLOUDY    28  26  92 SE7       30.21S WCI  21
COLUMBUS       LGT SNOW  26  23  88 SE5       30.17F FOG     WCI  20
ALBION         CLOUDY    26  22  85 CALM      30.15S
OMAHA EPPLEY   FRZ DRZL  30  28  92 SE12      30.20F WCI  20
OFFUTT AFB     FRZ RAIN  31  29  92 SE8       30.18F WCI  23
MILLARD        MIX PCPN  31  28  88 E6        30.19F WCI  26
LINCOLN        CLOUDY    30  27  88 E7        30.18F WCI  23
NEBRASKA CITY  MIX PCPN  31  31 100 SE3       30.18F
BEATRICE       CLOUDY    31  30  94 E7        30.15F WCI  24
FALLS CITY     CLOUDY    31  29  92 E9        30.18F WCI  23

...NORTHERN KANSAS...

CITY           SKY/WX    TMP DP  RH WIND       PRES   REMARKS
GOODLAND       SUNNY     32  18  56 SE10      29.98S WCI  24
HILL CITY      CLOUDY    26  25  96 S5        30.11F FOG     WCI  20
NORTON         CLOUDY    25  21  86 CALM      30.10S
PHILLIPSBURG   CLOUDY    27  27 100 CALM      30.13F FOG
SMITH CENTER   MIX PCPN  27  25  93 CALM      30.15F
BELOIT         CLOUDY    28  27  93 CALM      30.16S FOG
HAYS           CLOUDY    29  27  92 CALM      30.12F FOG
RUSSELL        CLOUDY    31  30  96 S3        30.12S FOG
CONCORDIA      FRZ RAIN  29  29 100 S8        30.15R FOG     WCI  21
SALINA         FRZ RAIN  32  31  96 S3        30.18R FOG
TOPEKA         CLOUDY    33  32  96 E7        30.19R FOG     WCI  27



USA.gov is the U.S. government's official web portal to all federal, state and local government web resources and services.